20040113,000002,622624,33.356500,-119.598500,NaN,13.744,32.907,39.448,  NaN,0.0, NaN, NaN, NaN, NaN, NaN,330.725,12.50,1020.36,82.40,NaN,323.0,NaN,2.9,NaN,97.6,NaN,2.9,NaN,NaN, NaN,NaN,237.0,NaN,NaN,NaN,2,9.2,000000,   NaN,238.4,     NaN,      NaN,NaN,6.4,NaN,13.748, NaN,NaN,NaN, NaN, NaN

20040113,000032,622654,33.355833,-119.599833,NaN,13.731,32.908,39.437,  NaN,0.0, NaN, NaN, NaN, NaN, NaN,330.382,12.30,1020.35,82.10,NaN,328.0,NaN,2.9,NaN,96.1,NaN,2.8,NaN,NaN, NaN,NaN,238.0,NaN,NaN,NaN,2,9.4,000030,   NaN,239.6,     NaN,      NaN,NaN,6.4,NaN,13.735, NaN,NaN,NaN, NaN, NaN

20040113,000102,622684,33.355167,-119.601167,NaN,13.713,32.910,39.422,  NaN,0.0, NaN, NaN, NaN, NaN, NaN,329.859,12.50,1020.50,82.90,NaN,337.0,NaN,3.0,NaN,91.4,NaN,2.3,NaN,NaN, NaN,NaN,242.0,NaN,NaN,NaN,2,9.5,000060,   NaN,239.9,     NaN,      NaN,NaN,6.4,NaN,13.716, NaN,NaN,NaN, NaN, NaN

20040113,000132,622714,33.354500,-119.602500,NaN,13.694,32.911,39.406,  NaN,0.0, NaN, NaN, NaN, NaN, NaN,329.470,12.50,1020.06,82.80,NaN,336.0,NaN,3.2,NaN,93.6,NaN,2.3,NaN,NaN, NaN,NaN,241.0,NaN,NaN,NaN,2,9.6,000090,   NaN,238.9,     NaN,      NaN,NaN,6.7,NaN,13.698, NaN,NaN,NaN, NaN, NaN

20040113,000202,622744,33.353833,-119.603833,NaN,13.680,32.912,39.394,  NaN,0.0, NaN, NaN, NaN, NaN, NaN,329.113,12.50,1020.23,82.80,NaN,331.0,NaN,2.8,NaN,88.4,NaN,2.8,NaN,NaN, NaN,NaN,238.0,NaN,NaN,NaN,2,9.4,000120,   NaN,238.8,     NaN,      NaN,NaN,6.6,NaN,13.683, NaN,NaN,NaN, NaN, NaN

20040113,000232,622774,33.353167,-119.605167,NaN,13.676,32.912,39.390,  NaN,0.0, NaN, NaN, NaN, NaN, NaN,329.016,12.50,1020.22,83.10,NaN,331.0,NaN,2.8,NaN,87.1,NaN,2.8,NaN,NaN, NaN,NaN,236.0,NaN,NaN,NaN,2,9.2,000150,   NaN,238.0,     NaN,      NaN,NaN,6.3,NaN,13.679, NaN,NaN,NaN, NaN, NaN

20040113,000302,622804,33.352500,-119.606500,NaN,13.723,32.902,39.423,  NaN,0.0, NaN, NaN, NaN, NaN, NaN,330.640,12.30,1020.26,82.80,NaN,328.0,NaN,2.9,NaN,89.5,NaN,2.8,NaN,NaN, NaN,NaN,240.0,NaN,NaN,NaN,2,9.5,000180,   NaN,239.4,     NaN,      NaN,NaN,6.2,NaN,13.726, NaN,NaN,NaN, NaN, NaN

20040113,000332,622834,33.351833,-119.608000,NaN,13.990,32.835,39.598,  NaN,0.0, NaN, NaN, NaN, NaN, NaN,340.811,12.50,1020.01,83.30,NaN,323.0,NaN,2.7,NaN,92.8,NaN,3.0,NaN,NaN, NaN,NaN,241.0,NaN,NaN,NaN,2,9.4,000210,   NaN,238.8,     NaN,      NaN,NaN,6.5,NaN,13.994, NaN,NaN,NaN, NaN, NaN

20040113,000402,622864,33.351167,-119.609333,NaN,14.172,32.815,39.744,  NaN,0.0, NaN, NaN, NaN, NaN, NaN,345.861,12.50,1020.46,83.40,NaN,323.0,NaN,2.8,NaN,87.4,NaN,3.1,NaN,NaN, NaN,NaN,240.0,NaN,NaN,NaN,2,9.3,000240,   NaN,239.0,     NaN,      NaN,NaN,6.7,NaN,14.176, NaN,NaN,NaN, NaN, NaN

20040113,000432,622894,33.350667,-119.610667,NaN,14.229,32.818,39.799,  NaN,0.0, NaN, NaN, NaN, NaN, NaN,346.810,12.50,1020.30,83.50,NaN,319.0,NaN,2.3,NaN,82.7,NaN,3.3,NaN,NaN, NaN,NaN,239.0,NaN,NaN,NaN,2,9.1,000270,   NaN,237.9,     NaN,      NaN,NaN,6.5,NaN,14.233, NaN,NaN,NaN, NaN, NaN

20040113,000502,622924,33.350000,-119.611833,NaN,14.270,32.812,39.831,  NaN,0.0, NaN, NaN, NaN, NaN, NaN,348.051,12.50,1020.22,83.70,NaN,332.0,NaN,2.7,NaN,87.8,NaN,2.6,NaN,NaN, NaN,NaN,241.0,NaN,NaN,NaN,2,9.2,000300,   NaN,237.7,     NaN,      NaN,NaN,6.4,NaN,14.273, NaN,NaN,NaN, NaN, NaN

20040113,000532,622954,33.349333,-119.613167,NaN,14.327,32.803,39.874,  NaN,0.0, NaN, NaN, NaN, NaN, NaN,349.804,12.50,1020.35,83.50,NaN,326.0,NaN,2.7,NaN,92.9,NaN,2.9,NaN,NaN, NaN,NaN,240.0,NaN,NaN,NaN,2,9.0,000330,   NaN,238.5,     NaN,      NaN,NaN,6.4,NaN,14.330, NaN,NaN,NaN, NaN, NaN

20040113,000602,622984,33.348833,-119.614500,NaN,14.338,32.806,39.888,  NaN,0.0, NaN, NaN, NaN, NaN, NaN,349.816,12.50,1020.36,83.50,NaN,326.0,NaN,2.8,NaN,90.1,NaN,2.8,NaN,NaN, NaN,NaN,240.0,NaN,NaN,NaN,2,9.0,000360,   NaN,238.7,     NaN,      NaN,NaN,6.6,NaN,14.342, NaN,NaN,NaN, NaN, NaN

20040113,000632,623014,33.348167,-119.615833,NaN,14.267,32.826,39.844,  NaN,0.0, NaN, NaN, NaN, NaN, NaN,346.972,12.50,1020.25,83.50,NaN,314.0,NaN,2.1,NaN,87.7,NaN,3.4,NaN,NaN, NaN,NaN,241.0,NaN,NaN,NaN,2,9.0,000390,   NaN,238.6,     NaN,      NaN,NaN,6.4,NaN,14.271, NaN,NaN,NaN, NaN, NaN

20040113,000702,623044,33.347667,-119.617167,NaN,14.214,32.832,39.801,  NaN,0.0, NaN, NaN, NaN, NaN, NaN,345.439,12.50,1020.34,83.50,NaN,329.0,NaN,3.1,NaN,93.8,NaN,2.5,NaN,NaN, NaN,NaN,242.0,NaN,NaN,NaN,2,9.1,000420,   NaN,238.2,     NaN,      NaN,NaN,6.6,NaN,14.218, NaN,NaN,NaN, NaN, NaN

20040113,000732,623074,33.347000,-119.618333,NaN,14.152,32.847,39.760,  NaN,0.0, NaN, NaN, NaN, NaN, NaN,343.095,12.50,1020.52,83.70,NaN,321.0,NaN,2.9,NaN,98.1,NaN,3.0,NaN,NaN, NaN,NaN,240.0,NaN,NaN,NaN,2,9.1,000450,   NaN,240.0,     NaN,      NaN,NaN,6.4,NaN,14.155, NaN,NaN,NaN, NaN, NaN

20040113,000802,623104,33.346333,-119.619667,NaN,14.096,32.855,39.716,  NaN,0.0, NaN, NaN, NaN, NaN, NaN,341.472,12.50,1020.49,83.70,NaN,326.0,NaN,3.0,NaN,94.2,NaN,2.9,NaN,NaN, NaN,NaN,242.0,NaN,NaN,NaN,2,9.1,000480,   NaN,239.8,     NaN,      NaN,NaN,6.5,NaN,14.100, NaN,NaN,NaN, NaN, NaN

20040113,000832,623134,33.345833,-119.621000,NaN,14.014,32.876,39.664,  NaN,0.0, NaN, NaN, NaN, NaN, NaN,338.266,12.50,1020.42,84.10,NaN,327.0,NaN,3.1,NaN,91.5,NaN,2.9,NaN,NaN, NaN,NaN,240.0,NaN,NaN,NaN,2,9.2,000510,   NaN,239.1,     NaN,      NaN,NaN,6.0,NaN,14.018, NaN,NaN,NaN, NaN, NaN

20040113,000902,623164,33.345167,-119.622333,NaN,13.922,32.890,39.595,  NaN,0.0, NaN, NaN, NaN, NaN, NaN,335.415,12.50,1020.50,83.90,NaN,323.0,NaN,3.2,NaN,101.7,NaN,2.8,NaN,NaN, NaN,NaN,240.0,NaN,NaN,NaN,2,9.2,000540,   NaN,238.8,     NaN,      NaN,NaN,6.5,NaN,13.926, NaN,NaN,NaN, NaN, NaN

20040113,000932,623194,33.344500,-119.623667,NaN,13.809,32.912,39.513,  NaN,0.0, NaN, NaN, NaN, NaN, NaN,331.616,12.50,1020.51,83.80,NaN,331.0,NaN,3.0,NaN,92.8,NaN,2.7,NaN,NaN, NaN,NaN,240.0,NaN,NaN,NaN,2,9.3,000570,   NaN,239.2,     NaN,      NaN,NaN,6.2,NaN,13.813, NaN,NaN,NaN, NaN, NaN

20040113,001002,623224,33.343833,-119.625000,NaN,13.758,32.915,39.469,  NaN,0.0, NaN, NaN, NaN, NaN, NaN,330.369,12.50,1020.66,83.90,NaN,335.0,NaN,3.4,NaN,99.4,NaN,2.2,NaN,NaN, NaN,NaN,239.0,NaN,NaN,NaN,2,9.5,000600,   NaN,237.1,     NaN,      NaN,NaN,6.5,NaN,13.761, NaN,NaN,NaN, NaN, NaN

20040113,001032,623254,33.343167,-119.626333,NaN,13.727,32.914,39.439,  NaN,0.0, NaN, NaN, NaN, NaN, NaN,329.878,12.50,1020.60,83.90,NaN,330.0,NaN,4.4,NaN,113.1,NaN,2.6,NaN,NaN, NaN,NaN,236.0,NaN,NaN,NaN,2,9.6,000630,   NaN,236.8,     NaN,      NaN,NaN,6.3,NaN,13.730, NaN,NaN,NaN, NaN, NaN

20040113,001102,623284,33.342500,-119.627667,NaN,13.733,32.906,39.436,  NaN,0.0, NaN, NaN, NaN, NaN, NaN,330.567,12.50,1020.53,83.50,NaN,333.0,NaN,4.6,NaN,128.6,NaN,2.3,NaN,NaN, NaN,NaN,236.0,NaN,NaN,NaN,2,9.8,000660,   NaN,236.1,     NaN,      NaN,NaN,6.4,NaN,13.737, NaN,NaN,NaN, NaN, NaN

20040113,001132,623314,33.341667,-119.629000,NaN,13.728,32.903,39.428,  NaN,0.0, NaN, NaN, NaN, NaN, NaN,330.692,12.50,1020.74,83.50,NaN,335.0,NaN,4.5,NaN,117.8,NaN,2.2,NaN,NaN, NaN,NaN,236.0,NaN,NaN,NaN,2,9.9,000690,   NaN,236.6,     NaN,      NaN,NaN,6.3,NaN,13.731, NaN,NaN,NaN, NaN, NaN

20040113,001202,623344,33.340833,-119.630333,NaN,13.714,32.900,39.413,  NaN,0.0, NaN, NaN, NaN, NaN, NaN,330.595,12.30,1020.55,83.80,NaN,330.0,NaN,4.0,NaN,107.8,NaN,2.4,NaN,NaN, NaN,NaN,233.0,NaN,NaN,NaN,2,10.1,000720,   NaN,236.2,     NaN,      NaN,NaN,6.4,NaN,13.717, NaN,NaN,NaN, NaN, NaN

20040113,001232,623374,33.340167,-119.631833,NaN,13.731,32.897,39.425,  NaN,0.0, NaN, NaN, NaN, NaN, NaN,331.154,12.50,1020.44,83.50,NaN,326.0,NaN,4.3,NaN,112.7,NaN,2.8,NaN,NaN, NaN,NaN,236.0,NaN,NaN,NaN,2,9.7,000750,   NaN,238.4,     NaN,      NaN,NaN,6.1,NaN,13.734, NaN,NaN,NaN, NaN, NaN

20040113,001302,623404,33.339333,-119.633167,NaN,13.744,32.897,39.437,  NaN,0.0, NaN, NaN, NaN, NaN, NaN,331.422,12.50,1020.48,83.80,NaN,326.0,NaN,4.4,NaN,110.2,NaN,3.1,NaN,NaN, NaN,NaN,230.0,NaN,NaN,NaN,2,9.8,000780,   NaN,235.0,     NaN,      NaN,NaN,6.2,NaN,13.747, NaN,NaN,NaN, NaN, NaN

20040113,001332,623434,33.338500,-119.634500,NaN,13.750,32.897,39.442,  NaN,0.0, NaN, NaN, NaN, NaN, NaN,331.584,12.50,1020.40,83.90,NaN,334.0,NaN,4.0,NaN,96.9,NaN,2.3,NaN,NaN, NaN,NaN,234.0,NaN,NaN,NaN,2,9.9,000810,   NaN,236.3,     NaN,      NaN,NaN,6.3,NaN,13.753, NaN,NaN,NaN, NaN, NaN

20040113,001402,623464,33.337667,-119.635833,NaN,13.748,32.897,39.440,  NaN,0.0, NaN, NaN, NaN, NaN, NaN,331.548,12.50,1020.55,84.10,NaN,342.0,NaN,5.1,NaN,133.4,NaN,1.6,NaN,NaN, NaN,NaN,233.0,NaN,NaN,NaN,2,10.1,000840,   NaN,236.1,     NaN,      NaN,NaN,6.3,NaN,13.751, NaN,NaN,NaN, NaN, NaN

20040113,001432,623494,33.337000,-119.637167,NaN,13.748,32.895,39.439,  NaN,0.0, NaN, NaN, NaN, NaN, NaN,331.619,12.50,1020.31,83.70,NaN,341.0,NaN,4.3,NaN,128.2,NaN,1.9,NaN,NaN, NaN,NaN,234.0,NaN,NaN,NaN,2,10.1,000870,   NaN,236.4,     NaN,      NaN,NaN,6.3,NaN,13.751, NaN,NaN,NaN, NaN, NaN

20040113,001502,623524,33.336167,-119.638500,NaN,13.745,32.897,39.439,  NaN,0.0, NaN, NaN, NaN, NaN, NaN,331.436,12.50,1020.38,83.90,NaN,338.0,NaN,3.5,NaN,88.9,NaN,2.3,NaN,NaN, NaN,NaN,233.0,NaN,NaN,NaN,2,10.1,000900,   NaN,234.8,     NaN,      NaN,NaN,6.5,NaN,13.749, NaN,NaN,NaN, NaN, NaN

20040113,001532,623554,33.335333,-119.639833,NaN,13.732,32.899,39.428,  NaN,0.0, NaN, NaN, NaN, NaN, NaN,331.030,12.50,1020.66,83.80,NaN,344.0,NaN,3.3,NaN,83.4,NaN,2.1,NaN,NaN, NaN,NaN,234.0,NaN,NaN,NaN,2,10.1,000930,   NaN,236.2,     NaN,      NaN,NaN,6.6,NaN,13.735, NaN,NaN,NaN, NaN, NaN

20040113,001602,623584,33.334500,-119.641167,NaN,13.741,32.899,39.436,  NaN,0.0, NaN, NaN, NaN, NaN, NaN,331.198,12.50,1020.49,83.80,NaN,341.0,NaN,3.5,NaN,84.9,NaN,2.3,NaN,NaN, NaN,NaN,235.0,NaN,NaN,NaN,2,10.2,000960,   NaN,236.8,     NaN,      NaN,NaN,6.6,NaN,13.744, NaN,NaN,NaN, NaN, NaN

20040113,001632,623614,33.333667,-119.642500,NaN,13.737,32.903,39.436,  NaN,0.0, NaN, NaN, NaN, NaN, NaN,330.906,12.50,1020.07,83.80,NaN,343.0,NaN,4.0,NaN,105.3,NaN,1.7,NaN,NaN, NaN,NaN,233.0,NaN,NaN,NaN,2,10.0,000990,   NaN,235.4,     NaN,      NaN,NaN,6.5,NaN,13.740, NaN,NaN,NaN, NaN, NaN

20040113,001702,623644,33.332833,-119.643833,NaN,13.731,32.908,39.437,  NaN,0.0, NaN, NaN, NaN, NaN, NaN,330.386,12.50,1020.27,83.70,NaN,339.0,NaN,3.5,NaN,85.2,NaN,2.5,NaN,NaN, NaN,NaN,234.0,NaN,NaN,NaN,2,10.0,001020,   NaN,236.2,     NaN,      NaN,NaN,6.5,NaN,13.735, NaN,NaN,NaN, NaN, NaN

20040113,001732,623674,33.332000,-119.645333,NaN,13.716,32.916,39.432,  NaN,0.0, NaN, NaN, NaN, NaN, NaN,329.505,12.50,1020.31,83.80,NaN,349.0,NaN,3.5,NaN,78.7,NaN,2.2,NaN,NaN, NaN,NaN,233.0,NaN,NaN,NaN,2,9.9,001050,   NaN,238.8,     NaN,      NaN,NaN,6.2,NaN,13.719, NaN,NaN,NaN, NaN, NaN

20040113,001802,623704,33.331333,-119.646667,NaN,13.694,32.925,39.420,  NaN,0.0, NaN, NaN, NaN, NaN, NaN,328.441,12.50,1020.66,83.40,NaN,354.0,NaN,3.4,NaN,80.0,NaN,2.0,NaN,NaN, NaN,NaN,236.0,NaN,NaN,NaN,2,9.8,001080,   NaN,241.3,     NaN,      NaN,NaN,6.5,NaN,13.697, NaN,NaN,NaN, NaN, NaN

20040113,001832,623734,33.330500,-119.648167,NaN,13.653,32.938,39.396,  NaN,0.0, NaN, NaN, NaN, NaN, NaN,326.683,12.50,1020.63,83.40,NaN,2.0,NaN,3.6,NaN,60.9,NaN,2.2,NaN,NaN, NaN,NaN,240.0,NaN,NaN,NaN,2,10.1,001110,   NaN,242.4,     NaN,      NaN,NaN,6.2,NaN,13.656, NaN,NaN,NaN, NaN, NaN

20040113,001902,623764,33.329833,-119.649500,NaN,13.650,32.947,39.404,  NaN,0.0, NaN, NaN, NaN, NaN, NaN,325.906,12.50,1020.35,83.40,NaN,353.0,NaN,4.1,NaN,96.9,NaN,1.3,NaN,NaN, NaN,NaN,242.0,NaN,NaN,NaN,2,10.2,001140,   NaN,243.1,     NaN,      NaN,NaN,6.3,NaN,13.653, NaN,NaN,NaN, NaN, NaN

20040113,001932,623794,33.329333,-119.651000,NaN,13.636,32.958,39.402,  NaN,0.0, NaN, NaN, NaN, NaN, NaN,324.875,12.50,1020.37,83.30,NaN,355.0,NaN,3.9,NaN,66.2,NaN,1.4,NaN,NaN, NaN,NaN,240.0,NaN,NaN,NaN,2,9.9,001170,   NaN,240.8,     NaN,      NaN,NaN,6.3,NaN,13.639, NaN,NaN,NaN, NaN, NaN

20040113,002002,623824,33.328667,-119.652333,NaN,13.592,32.968,39.372,  NaN,0.0, NaN, NaN, NaN, NaN, NaN,323.271,12.50,1020.56,83.20,NaN,354.0,NaN,3.1,NaN,76.1,NaN,1.5,NaN,NaN, NaN,NaN,240.0,NaN,NaN,NaN,2,9.8,001200,   NaN,241.7,     NaN,      NaN,NaN,6.1,NaN,13.595, NaN,NaN,NaN, NaN, NaN

20040113,002032,623854,33.327833,-119.653833,NaN,13.559,32.976,39.350,  NaN,0.0, NaN, NaN, NaN, NaN, NaN,322.089,12.50,1020.61,83.30,NaN,2.0,NaN,2.9,NaN,62.4,NaN,1.7,NaN,NaN, NaN,NaN,240.0,NaN,NaN,NaN,2,9.8,001230,   NaN,242.4,     NaN,      NaN,NaN,6.6,NaN,13.563, NaN,NaN,NaN, NaN, NaN

20040113,002102,623884,33.327333,-119.655167,NaN,13.548,32.976,39.341,  NaN,0.0, NaN, NaN, NaN, NaN, NaN,321.811,12.50,1020.50,83.50,NaN,352.0,NaN,3.6,NaN,88.1,NaN,1.6,NaN,NaN, NaN,NaN,239.0,NaN,NaN,NaN,2,9.7,001260,   NaN,242.8,     NaN,      NaN,NaN,6.4,NaN,13.551, NaN,NaN,NaN, NaN, NaN

20040113,002132,623914,33.326667,-119.656500,NaN,13.544,32.973,39.333,  NaN,0.0, NaN, NaN, NaN, NaN, NaN,321.976,12.50,1020.69,83.50,NaN,354.0,NaN,2.8,NaN,71.1,NaN,2.0,NaN,NaN, NaN,NaN,240.0,NaN,NaN,NaN,2,9.6,001290,   NaN,242.3,     NaN,      NaN,NaN,6.4,NaN,13.547, NaN,NaN,NaN, NaN, NaN

20040113,002202,623944,33.326000,-119.658000,NaN,13.566,32.961,39.342,  NaN,0.0, NaN, NaN, NaN, NaN, NaN,323.280,12.50,1020.66,83.30,NaN,354.0,NaN,2.5,NaN,68.8,NaN,2.8,NaN,NaN, NaN,NaN,239.0,NaN,NaN,NaN,2,9.7,001320,   NaN,241.9,     NaN,      NaN,NaN,6.5,NaN,13.570, NaN,NaN,NaN, NaN, NaN

20040113,002232,623974,33.325333,-119.659333,NaN,13.558,32.959,39.332,  NaN,0.0, NaN, NaN, NaN, NaN, NaN,323.249,12.50,1020.25,83.30,NaN,349.0,NaN,2.4,NaN,77.2,NaN,2.6,NaN,NaN, NaN,NaN,238.0,NaN,NaN,NaN,2,9.5,001350,   NaN,242.6,     NaN,      NaN,NaN,6.6,NaN,13.562, NaN,NaN,NaN, NaN, NaN

20040113,002302,624004,33.324667,-119.660667,NaN,13.536,32.963,39.315,  NaN,0.0, NaN, NaN, NaN, NaN, NaN,322.526,12.50,1020.21,83.00,NaN,344.0,NaN,1.7,NaN,73.6,NaN,2.6,NaN,NaN, NaN,NaN,239.0,NaN,NaN,NaN,2,8.1,001380,   NaN,242.9,     NaN,      NaN,NaN,5.7,NaN,13.539, NaN,NaN,NaN, NaN, NaN

20040113,002332,624034,33.324167,-119.661500,NaN,13.526,32.966,39.309,  NaN,0.0, NaN, NaN, NaN, NaN, NaN,322.139,12.50,1020.35,83.20,NaN,343.0,NaN,0.0,NaN,64.1,NaN,3.0,NaN,NaN, NaN,NaN,241.0,NaN,NaN,NaN,2,5.7,001410,   NaN,244.3,     NaN,      NaN,NaN,4.3,NaN,13.529, NaN,NaN,NaN, NaN, NaN

20040113,002402,624064,33.324000,-119.662333,NaN,13.512,32.973,39.304,  NaN,0.0, NaN, NaN, NaN, NaN, NaN,321.368,12.50,1020.30,83.30,NaN,344.0,NaN,0.0,NaN,70.2,NaN,2.3,NaN,NaN, NaN,NaN,238.0,NaN,NaN,NaN,2,4.4,001440,   NaN,250.8,     NaN,      NaN,NaN,3.3,NaN,13.516, NaN,NaN,NaN, NaN, NaN

20040113,002432,624094,33.323833,-119.662833,NaN,13.475,32.991,39.288,  NaN,0.0, NaN, NaN, NaN, NaN, NaN,319.343,12.50,1020.23,83.30,NaN,349.0,NaN,0.0,NaN,93.2,NaN,1.6,NaN,NaN, NaN,NaN,263.0,NaN,NaN,NaN,2,3.0,001470,   NaN,273.2,     NaN,      NaN,NaN,2.1,NaN,13.478, NaN,NaN,NaN, NaN, NaN

20040113,002502,624124,33.323833,-119.663167,NaN,13.444,33.003,39.274,  NaN,0.0, NaN, NaN, NaN, NaN, NaN,317.834,12.50,1020.19,83.40,NaN,353.0,NaN,0.0,NaN,122.6,NaN,1.1,NaN,NaN, NaN,NaN,312.0,NaN,NaN,NaN,2,1.9,001500,   NaN,303.7,     NaN,      NaN,NaN,1.4,NaN,13.448, NaN,NaN,NaN, NaN, NaN

20040113,002532,624154,33.324000,-119.663333,NaN,13.443,33.004,39.273,  NaN,0.0, NaN, NaN, NaN, NaN, NaN,317.768,12.50,1020.15,83.20,NaN,4.0,NaN,0.0,NaN,143.4,NaN,0.8,NaN,NaN, NaN,NaN,337.0,NaN,NaN,NaN,2,1.5,001530,   NaN,323.5,     NaN,      NaN,NaN,1.1,NaN,13.446, NaN,NaN,NaN, NaN, NaN

20040113,002602,624184,33.324333,-119.663500,NaN,13.452,32.999,39.276,  NaN,0.0, NaN, NaN, NaN, NaN, NaN,318.277,12.50,1020.04,83.50,NaN,23.0,NaN,0.0,NaN,142.7,NaN,0.9,NaN,NaN, NaN,NaN,353.0,NaN,NaN,NaN,2,1.7,001560,   NaN,322.8,     NaN,      NaN,NaN,1.2,NaN,13.455, NaN,NaN,NaN, NaN, NaN

20040113,002632,624214,33.324500,-119.663667,NaN,13.470,32.991,39.285,  NaN,0.0, NaN, NaN, NaN, NaN, NaN,319.219,12.50,1020.27,83.30,NaN,28.0,NaN,0.0,NaN,147.6,NaN,0.9,NaN,NaN, NaN,NaN,351.0,NaN,NaN,NaN,2,1.8,001590,   NaN,327.6,     NaN,      NaN,NaN,1.1,NaN,13.474, NaN,NaN,NaN, NaN, NaN

20040113,002702,624244,33.324667,-119.663833,NaN,13.487,32.984,39.292,  NaN,0.0, NaN, NaN, NaN, NaN, NaN,320.077,12.50,1020.73,83.30,NaN,36.0,NaN,0.0,NaN,140.0,NaN,1.2,NaN,NaN, NaN,NaN,323.0,NaN,NaN,NaN,2,2.3,001620,   NaN,320.3,     NaN,      NaN,NaN,1.4,NaN,13.490, NaN,NaN,NaN, NaN, NaN

20040113,002732,624274,33.324833,-119.663833,NaN,13.495,32.981,39.296,  NaN,0.0, NaN, NaN, NaN, NaN, NaN,320.469,12.50,1020.61,83.30,NaN,39.0,NaN,0.0,NaN,130.8,NaN,0.7,NaN,NaN, NaN,NaN,321.0,NaN,NaN,NaN,2,1.4,001650,   NaN,310.3,     NaN,      NaN,NaN,1.1,NaN,13.498, NaN,NaN,NaN, NaN, NaN

20040113,002802,624304,33.325000,-119.664000,NaN,13.499,32.980,39.299,  NaN,0.0, NaN, NaN, NaN, NaN, NaN,320.638,12.50,1020.41,83.30,NaN,38.0,NaN,0.0,NaN,121.4,NaN,0.4,NaN,NaN, NaN,NaN,320.0,NaN,NaN,NaN,2,0.8,001680,   NaN,301.1,     NaN,      NaN,NaN,0.8,NaN,13.503, NaN,NaN,NaN, NaN, NaN

20040113,002832,624334,33.325167,-119.664000,NaN,13.502,32.980,39.302,  NaN,0.0, NaN, NaN, NaN, NaN, NaN,320.696,12.50,1020.38,83.30,NaN,38.0,NaN,0.0,NaN,110.5,NaN,0.5,NaN,NaN, NaN,NaN,309.0,NaN,NaN,NaN,2,0.8,001710,   NaN,290.5,     NaN,      NaN,NaN,0.7,NaN,13.506, NaN,NaN,NaN, NaN, NaN

20040113,002902,624364,33.325167,-119.664000,NaN,13.505,32.980,39.305,  NaN,0.0, NaN, NaN, NaN, NaN, NaN,320.686,12.50,1020.61,83.40,NaN,38.0,NaN,0.0,NaN,100.3,NaN,0.4,NaN,NaN, NaN,NaN,306.0,NaN,NaN,NaN,2,0.8,001740,   NaN,279.8,     NaN,      NaN,NaN,0.5,NaN,13.508, NaN,NaN,NaN, NaN, NaN

20040113,002932,624394,33.325167,-119.664167,NaN,13.504,32.980,39.304,  NaN,0.0, NaN, NaN, NaN, NaN, NaN,320.735,12.50,1020.42,83.40,NaN,39.0,NaN,0.0,NaN,90.8,NaN,0.1,NaN,NaN, NaN,NaN,55.0,NaN,NaN,NaN,2,0.3,001770,   NaN,270.4,     NaN,      NaN,NaN,0.5,NaN,13.508, NaN,NaN,NaN, NaN, NaN

20040113,003002,624424,33.325167,-119.664167,NaN,13.505,32.979,39.304,  NaN,0.0, NaN, NaN, NaN, NaN, NaN,320.803,12.50,1020.58,83.30,NaN,43.0,NaN,0.0,NaN,82.4,NaN,0.2,NaN,NaN, NaN,NaN,265.0,NaN,NaN,NaN,2,0.4,001800,   NaN,262.4,     NaN,      NaN,NaN,0.4,NaN,13.508, NaN,NaN,NaN, NaN, NaN

20040113,003032,624454,33.325167,-119.664167,NaN,13.506,32.979,39.304,  NaN,0.0, NaN, NaN, NaN, NaN, NaN,320.799,12.50,1020.47,83.40,NaN,42.0,NaN,0.0,NaN,76.3,NaN,0.3,NaN,NaN, NaN,NaN,239.0,NaN,NaN,NaN,2,0.6,001830,   NaN,256.3,     NaN,      NaN,NaN,0.3,NaN,13.509, NaN,NaN,NaN, NaN, NaN

20040113,003102,624484,33.325167,-119.664167,NaN,13.504,32.980,39.303,  NaN,0.0, NaN, NaN, NaN, NaN, NaN,320.689,12.50,1020.79,83.40,NaN,43.0,NaN,0.0,NaN,79.5,NaN,0.4,NaN,NaN, NaN,NaN,306.0,NaN,NaN,NaN,2,0.8,001860,   NaN,259.1,     NaN,      NaN,NaN,0.5,NaN,13.507, NaN,NaN,NaN, NaN, NaN

20040113,003132,624514,33.325167,-119.664167,NaN,13.498,32.985,39.304,  NaN,0.0, NaN, NaN, NaN, NaN, NaN,320.167,12.50,1020.73,83.40,NaN,45.0,NaN,0.0,NaN,80.6,NaN,0.4,NaN,NaN, NaN,NaN,266.0,NaN,NaN,NaN,2,0.8,001890,   NaN,260.5,     NaN,      NaN,NaN,0.4,NaN,13.501, NaN,NaN,NaN, NaN, NaN

20040113,003202,624544,33.325167,-119.664167,NaN,13.489,32.991,39.302,  NaN,0.0, NaN, NaN, NaN, NaN, NaN,319.584,12.60,1020.63,83.50,NaN,48.0,NaN,0.0,NaN,81.7,NaN,0.3,NaN,NaN, NaN,NaN,105.0,NaN,NaN,NaN,2,0.6,001920,   NaN,261.7,     NaN,      NaN,NaN,0.4,NaN,13.492, NaN,NaN,NaN, NaN, NaN

20040113,003232,624574,33.325167,-119.664167,NaN,13.481,32.996,39.300,  NaN,0.0, NaN, NaN, NaN, NaN, NaN,319.069,12.60,1020.50,83.50,NaN,47.0,NaN,0.0,NaN,83.9,NaN,0.2,NaN,NaN, NaN,NaN,85.0,NaN,NaN,NaN,2,0.4,001950,   NaN,263.7,     NaN,      NaN,NaN,0.3,NaN,13.484, NaN,NaN,NaN, NaN, NaN

20040113,003302,624604,33.325167,-119.664333,NaN,13.469,33.002,39.296,  NaN,0.0, NaN, NaN, NaN, NaN, NaN,318.405,12.60,1020.80,83.30,NaN,49.0,NaN,0.0,NaN,86.6,NaN,0.3,NaN,NaN, NaN,NaN,21.0,NaN,NaN,NaN,2,0.6,001980,   NaN,266.7,     NaN,      NaN,NaN,0.2,NaN,13.473, NaN,NaN,NaN, NaN, NaN

20040113,003332,624634,33.325167,-119.664167,NaN,13.450,33.012,39.288,  NaN,0.0, NaN, NaN, NaN, NaN, NaN,317.321,12.60,1020.51,83.30,NaN,48.0,NaN,0.0,NaN,87.8,NaN,0.4,NaN,NaN, NaN,NaN,114.0,NaN,NaN,NaN,2,0.8,002010,   NaN,268.2,     NaN,      NaN,NaN,0.3,NaN,13.454, NaN,NaN,NaN, NaN, NaN

20040113,003402,624664,33.325167,-119.664167,NaN,13.427,33.021,39.277,  NaN,0.0, NaN, NaN, NaN, NaN, NaN,316.184,12.50,1020.59,83.30,NaN,49.0,NaN,0.0,NaN,90.0,NaN,0.6,NaN,NaN, NaN,NaN,115.0,NaN,NaN,NaN,2,1.0,002040,   NaN,270.0,     NaN,      NaN,NaN,0.3,NaN,13.430, NaN,NaN,NaN, NaN, NaN

20040113,003432,624694,33.325167,-119.664167,NaN,13.416,33.025,39.271,  NaN,0.0, NaN, NaN, NaN, NaN, NaN,315.708,12.50,1020.22,83.20,NaN,48.0,NaN,0.0,NaN,91.0,NaN,0.3,NaN,NaN, NaN,NaN,160.0,NaN,NaN,NaN,2,0.8,002070,   NaN,271.1,     NaN,      NaN,NaN,0.2,NaN,13.419, NaN,NaN,NaN, NaN, NaN

20040113,003502,624724,33.325167,-119.664000,NaN,13.414,33.026,39.271,  NaN,0.0, NaN, NaN, NaN, NaN, NaN,315.548,12.50,1020.48,83.00,NaN,48.0,NaN,0.0,NaN,92.8,NaN,0.3,NaN,NaN, NaN,NaN,89.0,NaN,NaN,NaN,2,0.6,002100,   NaN,272.9,     NaN,      NaN,NaN,0.2,NaN,13.418, NaN,NaN,NaN, NaN, NaN

20040113,003532,624754,33.325167,-119.664000,NaN,13.421,33.024,39.274,  NaN,0.0, NaN, NaN, NaN, NaN, NaN,315.806,12.50,1020.00,83.20,NaN,49.0,NaN,0.0,NaN,93.8,NaN,0.4,NaN,NaN, NaN,NaN,58.0,NaN,NaN,NaN,2,1.0,002130,   NaN,273.9,     NaN,      NaN,NaN,0.1,NaN,13.424, NaN,NaN,NaN, NaN, NaN

20040113,003602,624784,33.325167,-119.663833,NaN,13.411,33.031,39.272,  NaN,0.0, NaN, NaN, NaN, NaN, NaN,315.132,12.50,1020.69,83.20,NaN,49.0,NaN,0.0,NaN,96.1,NaN,0.3,NaN,NaN, NaN,NaN,300.0,NaN,NaN,NaN,2,0.5,002160,   NaN,276.1,     NaN,      NaN,NaN,0.1,NaN,13.414, NaN,NaN,NaN, NaN, NaN

20040113,003632,624814,33.325167,-119.663833,NaN,13.393,33.040,39.266,  NaN,0.0, NaN, NaN, NaN, NaN, NaN,314.112,12.50,1020.71,83.30,NaN,49.0,NaN,0.0,NaN,96.7,NaN,0.4,NaN,NaN, NaN,NaN,109.0,NaN,NaN,NaN,2,0.7,002190,   NaN,276.9,     NaN,      NaN,NaN,0.1,NaN,13.396, NaN,NaN,NaN, NaN, NaN

20040113,003702,624844,33.325167,-119.663667,NaN,13.383,33.044,39.261,  NaN,0.0, NaN, NaN, NaN, NaN, NaN,313.626,12.50,1020.62,83.20,NaN,49.0,NaN,0.0,NaN,97.1,NaN,0.2,NaN,NaN, NaN,NaN,91.0,NaN,NaN,NaN,2,0.5,002220,   NaN,277.2,     NaN,      NaN,NaN,0.1,NaN,13.387, NaN,NaN,NaN, NaN, NaN

20040113,003732,624874,33.325167,-119.663500,NaN,13.375,33.047,39.256,  NaN,0.0, NaN, NaN, NaN, NaN, NaN,313.309,12.50,1020.95,83.40,NaN,52.0,NaN,0.0,NaN,96.5,NaN,0.5,NaN,NaN, NaN,NaN,69.0,NaN,NaN,NaN,2,0.8,002250,   NaN,276.5,     NaN,      NaN,NaN,0.1,NaN,13.378, NaN,NaN,NaN, NaN, NaN

20040113,003802,624904,33.325167,-119.663333,NaN,13.378,33.043,39.255,  NaN,0.0, NaN, NaN, NaN, NaN, NaN,313.610,12.50,1020.59,83.30,NaN,52.0,NaN,0.0,NaN,95.4,NaN,0.7,NaN,NaN, NaN,NaN,91.0,NaN,NaN,NaN,2,1.2,002280,   NaN,275.5,     NaN,      NaN,NaN,0.0,NaN,13.381, NaN,NaN,NaN, NaN, NaN

20040113,003832,624934,33.325167,-119.663333,NaN,13.390,33.037,39.259,  NaN,0.0, NaN, NaN, NaN, NaN, NaN,314.296,12.50,1020.42,83.20,NaN,52.0,NaN,0.0,NaN,95.0,NaN,0.4,NaN,NaN, NaN,NaN,95.0,NaN,NaN,NaN,2,0.9,002310,   NaN,275.2,     NaN,      NaN,NaN,0.1,NaN,13.393, NaN,NaN,NaN, NaN, NaN

20040113,003902,624964,33.325167,-119.663167,NaN,13.393,33.036,39.262,  NaN,0.0, NaN, NaN, NaN, NaN, NaN,314.399,12.50,1020.67,83.20,NaN,53.0,NaN,0.0,NaN,94.9,NaN,0.5,NaN,NaN, NaN,NaN,90.0,NaN,NaN,NaN,2,0.9,002340,   NaN,274.9,     NaN,      NaN,NaN,0.0,NaN,13.396, NaN,NaN,NaN, NaN, NaN

20040113,003932,624994,33.325167,-119.663000,NaN,13.400,33.030,39.261,  NaN,0.0, NaN, NaN, NaN, NaN, NaN,314.971,12.50,1020.56,83.20,NaN,52.0,NaN,0.0,NaN,94.7,NaN,0.5,NaN,NaN, NaN,NaN,99.0,NaN,NaN,NaN,2,0.9,002370,   NaN,274.7,     NaN,      NaN,NaN,0.0,NaN,13.403, NaN,NaN,NaN, NaN, NaN

20040113,004002,625024,33.325167,-119.663000,NaN,13.391,33.038,39.261,  NaN,0.0, NaN, NaN, NaN, NaN, NaN,314.265,12.60,1020.73,83.20,NaN,52.0,NaN,0.0,NaN,94.0,NaN,0.5,NaN,NaN, NaN,NaN,106.0,NaN,NaN,NaN,2,0.9,002400,   NaN,274.0,     NaN,      NaN,NaN,0.1,NaN,13.394, NaN,NaN,NaN, NaN, NaN
